SCP
0 0 0 0 0 -0 0 0 -0 -0 -0 0 0 0 -0 -0 0 0 0 0 0 -0 -0 -0 -0 -0 0 0 -0 -0 0 0 0 1 0 0 0 0 0 0 0 0 0 0
0 -0 0 0 -0 0 0 0 -0 0 -0 0 0 0 -0 0 0 0 0 -0 -0 -0 -0 -0 -0 -0 -0 -0 -0 -0 -0 0 0 0 1 1 0 0 0 0 0 0 0 -0
0 0 -0 -0 0 0 0 -0 -0 0 0 0 0 0 0 0 0 0 0 -0 0 -0 0 0 -0 -0 -0 -0 -0 -0 -0 0 0 0 0 0 0 0 0 0 0 0 -0 -0
0 -0 -0 0 0 -0 0 -0 -0 -0 0 0 0 0 0 0 0 0 0 1 0 0 1 0 0 -0 -0 -0 -0 -0 -0 -0 -0 -0 0 -0 0 0 0 0 0 0 0 0
-0 -0 0 0 0 0 0 -0 0 -0 0 0 0 0 0 0 0 0 1 0 0 0 0 -0 0 0 0 0 -0 -0 -0 -0 -0 -0 0 0 0 0 0 0 0 0 0 0
-0 0 0 0 0 0 -0 0 0 0 0 0 0 0 0 0 0 0 0 1 0 0 0 0 0 -0 0 0 -0 -0 -1 -0 0 0 0 0 0 0 0 0 0 0 0 0
0 0 -0 -0 0 -0 0 0 0 0 0 -0 0 0 0 0 0 0 0 0 0 0 0 -0 -0 0 0 0 -0 -0 -0 0 0 0 0 0 0 0 0 0 0 0 0 0
0 0 0 0 -0 0 0 0 0 0 0 0 0 0 0 0 0 0 0 0 0 0 -0 -0 -0 0 0 1 1 -0 -0 -0 0 0 0 0 0 0 0 0 0 0 0 0
0 0 0 0 0 0 0 0 0 0 0 0 0 0 0 0 0 0 0 0 0 0 -0 -0 -0 0 0 0 0 -0 1 0 1 0 0 0 0 0 0 0 0 0 0 0
0 0 0 0 -0 0 0 0 0 0 0 0 0 0 0 0 0 0 0 0 0 0 -0 0 0 -0 -0 -0 -0 0 0 0 0 0 0 0 0 0 0 0 0 0 0 0
0 0 0 -0 -0 0 0 0 0 0 0 0 0 0 0 0 0 0 0 0 0 1 0 0 0 -0 0 0 0 0 0 0 0 0 0 0 0 0 0 0 0 0 0 0
0 -0 0 0 0 0 0 -0 0 0 0 0 0 0 0 0 0 0 0 0 0 0 -0 -0 -0 0 0 0 0 0 0 0 0 0 0 0 0 0 0 0 0 0 0 0
0 0 0 -0 0 0 0 0 0 0 0 0 0 0 0 0 0 0 0 0 0 0 0 0 0 0 0 0 0 0 0 0 0 0 0 0 0 0 0 0 0 0 0 0
0 0 0 0 0 -0 0 0 0 0 0 0 0 0 -0 0 0 0 -0 0 0 0 0 0 0 0 0 0 0 0 0 0 0 0 0 0 0 0 0 0 0 0 0 0
0 0 0 0 -0 0 0 0 0 0 0 0 -0 0 -0 -0 -0 0 0 0 0 0 0 0 0 0 0 0 0 0 0 0 0 0 0 0 0 0 0 0 0 0 0 0
0 0 0 0 0 0 0 0 0 0 0 0 -0 0 -0 -0 0 0 0 0 0 0 0 0 0 0 0 0 0 0 0 0 0 0 0 0 0 0 0 0 0 0 0 0
0 0 0 0 0 0 0 0 0 0 0 0 0 0 0 0 0 0 0 0 0 0 0 0 0 0 0 0 0 0 0 0 0 0 0 0 0 0 0 0 0 0 0 0
0 0 0 0 0 0 0 0 0 0 0 0 0 0 0 0 0 0 0 0 0 0 0 0 0 0 0 0 0 0 0 0 0 0 0 0 0 0 0 0 0 0 0 0
0 0 0 0 0 0 0 0 0 0 1 0 0 -0 0 0 0 0 0 0 0 0 0 0 0 0 0 0 0 0 0 0 0 0 0 0 0 0 0 0 0 0 0 0
0 0 0 0 0 0 0 0 0 0 0 0 -0 -0 0 0 0 0 0 0 0 0 0 0 0 0 0 0 0 0 0 0 0 0 0 0 0 0 0 0 0 0 0 0
0 0 0 0 0 0 0 0 0 0 0 -0 -0 0 0 0 0 0 0 0 0 0 0 0 0 0 0 0 0 0 0 0 0 0 0 0 0 0 -0 0 0 0 0 0
0 0 0 0 0 0 0 0 0 0 0 0 0 0 0 0 0 0 0 0 0 0 0 0 0 0 0 0 0 0 0 0 0 0 0 0 0 0 0 0 0 0 0 0
0 0 1 0 0 0 0 0 0 0 0 0 0 0 -0 0 0 0 0 0 0 0 0 0 0 0 0 0 0 0 0 0 0 0 0 0 0 0 -0 -0 -0 0 0 0
0 0 0 0 0 0 0 0 0 0 0 0 0 0 0 0 0 0 0 0 0 0 0 0 0 0 0 0 0 0 0 0 0 0 0 0 0 0 0 0 0 0 0 0
0 0 0 0 0 0 0 0 0 0 0 0 0 0 0 0 0 0 0 0 0 0 0 0 0 0 0 0 0 0 0 0 0 0 0 0 0 0 0 0 0 0 0 0
0 0 0 0 0 0 0 0 0 0 0 0 0 0 0 0 0 0 0 0 0 0 0 0 0 0 0 0 0 0 0 0 0 0 0 0 0 0 0 0 0 0 0 0
Wind_Speed_500mb
31 6 16 23 13 16 25 12 8 8 21 15 23 15 41 54 49 45 52 63 73 72 51 59 54 54 52 45 52 45 41 39 38 38 37 32 26 17 17 17 17 20 15 13
9 15 28 14 22 20 23 6 11 17 23 11 15 22 34 40 49 58 59 62 59 57 55 65 64 60 57 45 49 51 42 33 33 34 30 27 21 25 25 24 23 27 24 14
14 31 8 13 29 20 19 9 15 15 17 12 13 8 19 20 31 41 45 32 43 11 13 13 55 63 54 53 41 45 40 29 31 18 26 30 27 32 26 24 25 23 27 23
14 27 25 18 21 10 16 13 22 16 13 12 8 8 9 6 11 15 48 57 66 52 56 46 51 61 69 54 39 39 37 34 13 15 20 25 25 30 31 28 28 28 30 26
23 9 12 13 32 17 22 17 8 6 7 8 10 12 10 6 1 19 41 66 76 66 50 78 68 56 71 61 48 44 43 39 18 15 12 19 24 29 29 29 29 30 24 27
17 22 10 22 31 13 19 6 14 10 7 6 9 11 7 12 11 8 28 45 62 70 56 73 69 44 60 46 63 54 49 41 31 22 13 17 17 17 17 18 20 21 21 19
14 19 15 13 10 15 2 14 7 9 9 11 12 9 12 9 16 21 32 49 64 71 61 53 44 37 29 38 45 48 48 37 28 20 20 16 10 10 9 12 11 10 14 24
12 19 9 8 15 18 15 17 12 10 5 10 7 2 7 14 39 37 46 46 43 28 27 24 20 21 19 18 37 46 49 34 21 14 4 3 3 6 9 15 17 17 17 18
7 16 13 8 13 19 13 2 12 12 6 8 2 8 12 30 18 26 30 35 21 4 28 39 22 4 31 44 46 60 41 41 28 16 4 8 6 8 10 6 3 10 9 9
14 10 12 16 7 14 16 10 3 7 4 2 4 5 7 15 18 28 35 48 33 25 42 50 27 15 53 83 89 24 32 28 17 16 15 15 15 16 21 19 17 18 20 20
13 11 42 5 6 17 7 1 9 12 11 10 8 10 5 7 23 29 40 55 37 14 12 11 47 45 23 31 33 36 34 26 15 18 11 12 11 12 15 19 25 26 23 22
17 12 15 24 21 11 13 21 13 10 6 5 8 8 4 12 28 52 47 64 53 23 7 24 52 51 40 33 39 28 27 23 16 6 12 19 23 25 29 29 29 30 33 34
14 5 10 22 17 10 6 8 12 14 8 5 11 10 5 20 19 36 57 44 50 62 24 30 35 38 32 25 23 19 16 11 7 15 23 27 27 30 32 34 36 38 41 42
30 8 15 17 16 6 5 7 6 15 9 13 10 9 10 9 10 18 49 42 41 47 31 25 22 20 16 13 10 7 6 7 14 21 23 26 30 33 34 34 34 32 33 36
18 12 8 10 9 9 9 12 11 10 17 13 16 18 22 24 21 25 29 22 17 25 22 19 18 19 16 14 8 6 12 18 23 29 32 29 28 29 28 28 30 31 30 31
1 8 9 8 10 14 11 5 12 12 10 16 27 4 10 21 17 30 41 30 25 36 24 19 26 21 17 11 2 6 16 24 27 27 26 29 31 32 29 24 26 28 29 29
13 12 8 9 7 5 9 5 11 10 10 15 20 12 14 15 27 48 53 43 46 40 35 32 19 21 21 10 4 13 21 23 27 29 31 31 26 25 26 30 30 32 34 35
13 14 7 5 10 3 12 20 23 23 13 16 20 18 21 34 36 50 55 65 57 49 42 36 35 31 19 8 9 12 22 26 29 31 25 21 25 25 27 29 32 32 34 38
10 12 8 11 5 5 9 11 4 36 1 20 28 31 42 51 55 34 60 59 58 51 44 38 29 22 17 8 10 21 20 21 25 20 20 24 28 30 29 32 30 33 34 39
12 12 12 8 11 10 13 3 9 15 1 20 61 51 68 65 20 11 63 62 54 47 39 32 24 18 11 8 17 15 16 21 18 20 32 34 39 32 30 27 30 40 43 46
8 7 14 8 8 7 12 12 8 5 17 54 68 71 66 16 36 75 72 61 50 39 34 29 25 16 4 8 11 9 15 18 19 22 18 26 28 33 40 29 25 39 41 45
14 14 7 9 9 6 25 7 16 15 50 58 55 61 49 49 80 80 66 56 45 38 32 22 17 9 5 8 6 10 18 21 18 21 25 25 21 27 35 44 33 38 51 50
7 6 12 12 14 6 52 16 29 50 67 55 70 64 66 85 83 75 63 48 39 32 26 15 6 4 4 5 6 11 18 19 18 23 28 28 28 41 39 44 38 35 43 44
9 14 7 10 10 11 23 30 36 50 72 73 79 79 84 88 75 63 52 40 33 27 20 15 9 3 5 3 8 14 12 11 14 18 29 32 28 31 37 40 41 38 43 42
8 13 3 9 11 24 25 40 53 55 61 73 72 79 78 75 64 55 45 37 32 25 21 12 5 5 6 3 7 8 7 10 9 12 13 22 26 30 26 33 39 42 37 39
4 3 7 9 24 18 24 58 81 89 75 73 82 73 67 61 65 53 46 36 29 24 18 13 9 9 8 6 12 8 10 15 12 14 20 19 25 26 26 29 30 31 34 34
Wind_Direction_500mb
293 9 253 261 232 251 276 245 246 213 186 153 194 158 177 184 188 191 179 176 174 182 188 189 195 194 195 209 211 211 209 218 228 230 235 241 259 263 255 261 276 275 268 266
331 234 246 256 267 267 270 155 265 288 182 131 175 200 179 186 194 189 182 184 181 184 187 191 194 197 205 207 212 216 213 210 219 237 247 254 269 270 280 283 281 284 286 290
197 243 260 247 277 272 278 187 232 210 163 200 125 9 189 205 209 192 183 143 120 199 181 199 203 209 215 213 211 210 214 216 235 238 241 248 257 273 287 297 298 290 294 297
231 265 247 267 271 276 268 221 201 230 126 203 176 220 213 349 261 137 158 138 150 178 210 198 225 218 215 223 223 221 217 220 245 248 250 258 277 284 296 299 295 296 297 300
247 274 273 266 252 258 251 249 305 153 173 57 356 77 267 57 232 146 148 156 171 192 186 194 207 227 215 222 225 223 220 224 242 266 250 259 269 287 304 301 299 288 298 294
245 281 191 238 265 251 277 256 37 56 88 31 269 128 265 170 146 307 159 161 185 200 202 194 202 213 215 214 233 224 220 222 227 243 247 247 262 268 286 303 303 298 295 290
305 280 279 239 280 320 42 63 4 1 11 229 226 83 207 246 99 162 161 187 195 211 201 192 231 238 216 211 213 207 212 206 220 230 227 235 253 274 302 301 319 299 301 304
199 291 198 242 186 215 229 147 152 194 205 265 32 49 279 68 86 131 160 176 196 220 244 314 308 266 251 221 228 207 187 191 206 180 123 37 2 342 350 341 332 330 341 327
186 267 291 275 250 146 251 146 191 119 133 74 250 330 311 68 60 56 107 90 83 168 270 328 306 219 211 256 232 195 168 135 103 80 70 32 1 12 3 357 347 308 324 336
223 288 250 293 357 281 166 170 84 7 115 95 350 146 236 72 90 83 91 92 95 31 269 291 167 200 204 220 236 114 116 94 145 206 210 231 255 237 261 267 270 277 283 286
156 131 273 6 175 249 269 313 66 119 123 154 152 250 244 166 143 130 118 123 121 135 267 209 151 162 175 199 154 131 137 168 195 198 173 226 240 251 254 264 267 271 278 277
193 164 232 241 270 224 228 195 160 140 237 79 125 258 166 243 156 137 119 122 115 138 198 140 148 155 167 167 158 171 162 206 195 215 283 289 290 286 288 290 293 291 289 290
171 237 258 311 342 358 215 166 126 102 80 183 128 251 128 181 178 97 132 143 155 150 168 153 140 135 131 123 121 138 151 182 259 287 299 299 299 301 303 306 306 302 299 297
152 126 164 216 216 212 24 70 117 122 121 155 201 187 237 224 227 132 126 146 178 180 157 140 122 107 106 112 111 91 41 342 335 328 321 314 313 315 314 312 312 314 313 310
127 152 151 198 208 209 187 79 150 145 163 136 198 181 211 193 203 177 145 143 134 158 153 154 127 115 116 118 108 52 2 345 336 326 321 326 331 327 324 325 329 332 331 329
4 170 128 222 281 250 155 223 154 91 93 79 146 172 219 183 165 176 171 155 172 172 177 152 126 120 147 152 123 339 340 336 331 329 330 329 325 327 334 341 344 342 343 344
119 129 102 241 192 357 19 11 232 124 102 157 141 152 139 150 151 166 165 161 172 174 168 149 151 170 179 186 303 332 329 326 326 330 332 336 344 351 5 4 350 353 351 351
136 117 110 151 51 131 254 302 187 127 107 103 92 116 134 141 150 161 164 170 175 181 169 160 161 168 176 205 269 318 318 317 325 328 335 350 5 4 10 9 4 1 349 346
161 129 122 118 157 233 331 334 92 126 193 138 124 125 123 132 127 135 169 172 159 150 155 161 171 178 172 214 303 321 320 332 335 347 8 16 20 21 13 13 14 7 356 354
83 109 127 102 114 163 196 340 219 132 96 174 142 146 138 131 136 186 159 158 152 157 160 165 177 183 209 281 312 317 346 355 7 39 40 30 26 26 20 28 21 26 28 29
127 53 143 107 131 269 220 138 152 169 215 165 156 157 160 145 160 159 158 151 153 152 154 164 173 188 210 334 327 351 3 16 28 38 23 28 19 18 17 10 26 34 25 24
153 137 149 93 88 238 187 158 170 200 142 161 163 159 156 152 147 150 150 145 147 147 149 163 161 137 66 352 342 21 18 43 63 54 31 17 8 11 9 16 19 46 44 38
29 183 161 154 202 247 163 152 155 151 159 165 163 169 163 148 146 147 142 145 146 151 156 160 179 115 24 16 9 9 28 72 68 49 31 34 44 42 45 38 30 49 38 35
305 22 94 86 328 66 122 112 153 173 166 169 169 160 161 153 151 145 147 149 151 153 155 157 163 118 66 48 352 350 23 89 68 58 37 38 37 30 32 29 22 22 22 20
260 340 26 88 69 97 88 126 139 137 144 145 152 160 163 156 153 155 152 155 157 159 154 166 166 102 99 53 18 21 62 103 93 39 20 14 23 19 16 26 14 8 4 8
337 240 135 166 174 124 123 130 140 141 144 151 155 156 160 162 156 158 153 156 158 153 147 143 115 102 91 44 8 46 84 101 63 29 31 39 20 17 16 11 13 16 4 13
Wind_Speed_850mb
31 6 16 23 13 16 25 12 8 8 21 15 23 15 41 54 49 45 52 63 73 72 51 59 54 54 52 45 52 45 41 39 38 38 37 32 26 17 17 17 17 20 15 13
9 15 28 14 22 20 23 6 11 17 23 11 15 22 34 40 49 58 59 62 59 57 55 65 64 60 57 45 49 51 42 33 33 34 30 27 21 25 25 24 23 27 24 14
14 31 8 13 29 20 19 9 15 15 17 12 13 8 19 20 31 41 45 32 43 11 13 13 55 63 54 53 41 45 40 29 31 18 26 30 27 32 26 24 25 23 27 23
14 27 25 18 21 10 16 13 22 16 13 12 8 8 9 6 11 15 48 57 66 52 56 46 51 61 69 54 39 39 37 34 13 15 20 25 25 30 31 28 28 28 30 26
23 9 12 13 32 17 22 17 8 6 7 8 10 12 10 6 1 19 41 66 76 66 50 78 68 56 71 61 48 44 43 39 18 15 12 19 24 29 29 29 29 30 24 27
17 22 10 22 31 13 19 6 14 10 7 6 9 11 7 12 11 8 28 45 62 70 56 73 69 44 60 46 63 54 49 41 31 22 13 17 17 17 17 18 20 21 21 19
14 19 15 13 10 15 2 14 7 9 9 11 12 9 12 9 16 21 32 49 64 71 61 53 44 37 29 38 45 48 48 37 28 20 20 16 10 10 9 12 11 10 14 24
12 19 9 8 15 18 15 17 12 10 5 10 7 2 7 14 39 37 46 46 43 28 27 24 20 21 19 18 37 46 49 34 21 14 4 3 3 6 9 15 17 17 17 18
7 16 13 8 13 19 13 2 12 12 6 8 2 8 12 30 18 26 30 35 21 4 28 39 22 4 31 44 46 60 41 41 28 16 4 8 6 8 10 6 3 10 9 9
14 10 12 16 7 14 16 10 3 7 4 2 4 5 7 15 18 28 35 48 33 25 42 50 27 15 53 83 89 24 32 28 17 16 15 15 15 16 21 19 17 18 20 20
13 11 42 5 6 17 7 1 9 12 11 10 8 10 5 7 23 29 40 55 37 14 12 11 47 45 23 31 33 36 34 26 15 18 11 12 11 12 15 19 25 26 23 22
17 12 15 24 21 11 13 21 13 10 6 5 8 8 4 12 28 52 47 64 53 23 7 24 52 51 40 33 39 28 27 23 16 6 12 19 23 25 29 29 29 30 33 34
14 5 10 22 17 10 6 8 12 14 8 5 11 10 5 20 19 36 57 44 50 62 24 30 35 38 32 25 23 19 16 11 7 15 23 27 27 30 32 34 36 38 41 42
30 8 15 17 16 6 5 7 6 15 9 13 10 9 10 9 10 18 49 42 41 47 31 25 22 20 16 13 10 7 6 7 14 21 23 26 30 33 34 34 34 32 33 36
18 12 8 10 9 9 9 12 11 10 17 13 16 18 22 24 21 25 29 22 17 25 22 19 18 19 16 14 8 6 12 18 23 29 32 29 28 29 28 28 30 31 30 31
1 8 9 8 10 14 11 5 12 12 10 16 27 4 10 21 17 30 41 30 25 36 24 19 26 21 17 11 2 6 16 24 27 27 26 29 31 32 29 24 26 28 29 29
13 12 8 9 7 5 9 5 11 10 10 15 20 12 14 15 27 48 53 43 46 40 35 32 19 21 21 10 4 13 21 23 27 29 31 31 26 25 26 30 30 32 34 35
13 14 7 5 10 3 12 20 23 23 13 16 20 18 21 34 36 50 55 65 57 49 42 36 35 31 19 8 9 12 22 26 29 31 25 21 25 25 27 29 32 32 34 38
10 12 8 11 5 5 9 11 4 36 1 20 28 31 42 51 55 34 60 59 58 51 44 38 29 22 17 8 10 21 20 21 25 20 20 24 28 30 29 32 30 33 34 39
12 12 12 8 11 10 13 3 9 15 1 20 61 51 68 65 20 11 63 62 54 47 39 32 24 18 11 8 17 15 16 21 18 20 32 34 39 32 30 27 30 40 43 46
8 7 14 8 8 7 12 12 8 5 17 54 68 71 66 16 36 75 72 61 50 39 34 29 25 16 4 8 11 9 15 18 19 22 18 26 28 33 40 29 25 39 41 45
14 14 7 9 9 6 25 7 16 15 50 58 55 61 49 49 80 80 66 56 45 38 32 22 17 9 5 8 6 10 18 21 18 21 25 25 21 27 35 44 33 38 51 50
7 6 12 12 14 6 52 16 29 50 67 55 70 64 66 85 83 75 63 48 39 32 26 15 6 4 4 5 6 11 18 19 18 23 28 28 28 41 39 44 38 35 43 44
9 14 7 10 10 11 23 30 36 50 72 73 79 79 84 88 75 63 52 40 33 27 20 15 9 3 5 3 8 14 12 11 14 18 29 32 28 31 37 40 41 38 43 42
8 13 3 9 11 24 25 40 53 55 61 73 72 79 78 75 64 55 45 37 32 25 21 12 5 5 6 3 7 8 7 10 9 12 13 22 26 30 26 33 39 42 37 39
4 3 7 9 24 18 24 58 81 89 75 73 82 73 67 61 65 53 46 36 29 24 18 13 9 9 8 6 12 8 10 15 12 14 20 19 25 26 26 29 30 31 34 34
Wind_Direction_850mb
293 9 253 261 232 251 276 245 246 213 186 153 194 158 177 184 188 191 179 176 174 182 188 189 195 194 195 209 211 211 209 218 228 230 235 241 259 263 255 261 276 275 268 266
331 234 246 256 267 267 270 155 265 288 182 131 175 200 179 186 194 189 182 184 181 184 187 191 194 197 205 207 212 216 213 210 219 237 247 254 269 270 280 283 281 284 286 290
197 243 260 247 277 272 278 187 232 210 163 200 125 9 189 205 209 192 183 143 120 199 181 199 203 209 215 213 211 210 214 216 235 238 241 248 257 273 287 297 298 290 294 297
231 265 247 267 271 276 268 221 201 230 126 203 176 220 213 349 261 137 158 138 150 178 210 198 225 218 215 223 223 221 217 220 245 248 250 258 277 284 296 299 295 296 297 300
247 274 273 266 252 258 251 249 305 153 173 57 356 77 267 57 232 146 148 156 171 192 186 194 207 227 215 222 225 223 220 224 242 266 250 259 269 287 304 301 299 288 298 294
245 281 191 238 265 251 277 256 37 56 88 31 269 128 265 170 146 307 159 161 185 200 202 194 202 213 215 214 233 224 220 222 227 243 247 247 262 268 286 303 303 298 295 290
305 280 279 239 280 320 42 63 4 1 11 229 226 83 207 246 99 162 161 187 195 211 201 192 231 238 216 211 213 207 212 206 220 230 227 235 253 274 302 301 319 299 301 304
199 291 198 242 186 215 229 147 152 194 205 265 32 49 279 68 86 131 160 176 196 220 244 314 308 266 251 221 228 207 187 191 206 180 123 37 2 342 350 341 332 330 341 327
186 267 291 275 250 146 251 146 191 119 133 74 250 330 311 68 60 56 107 90 83 168 270 328 306 219 211 256 232 195 168 135 103 80 70 32 1 12 3 357 347 308 324 336
223 288 250 293 357 281 166 170 84 7 115 95 350 146 236 72 90 83 91 92 95 31 269 291 167 200 204 220 236 114 116 94 145 206 210 231 255 237 261 267 270 277 283 286
156 131 273 6 175 249 269 313 66 119 123 154 152 250 244 166 143 130 118 123 121 135 267 209 151 162 175 199 154 131 137 168 195 198 173 226 240 251 254 264 267 271 278 277
193 164 232 241 270 224 228 195 160 140 237 79 125 258 166 243 156 137 119 122 115 138 198 140 148 155 167 167 158 171 162 206 195 215 283 289 290 286 288 290 293 291 289 290
171 237 258 311 342 358 215 166 126 102 80 183 128 251 128 181 178 97 132 143 155 150 168 153 140 135 131 123 121 138 151 182 259 287 299 299 299 301 303 306 306 302 299 297
152 126 164 216 216 212 24 70 117 122 121 155 201 187 237 224 227 132 126 146 178 180 157 140 122 107 106 112 111 91 41 342 335 328 321 314 313 315 314 312 312 314 313 310
127 152 151 198 208 209 187 79 150 145 163 136 198 181 211 193 203 177 145 143 134 158 153 154 127 115 116 118 108 52 2 345 336 326 321 326 331 327 324 325 329 332 331 329
4 170 128 222 281 250 155 223 154 91 93 79 146 172 219 183 165 176 171 155 172 172 177 152 126 120 147 152 123 339 340 336 331 329 330 329 325 327 334 341 344 342 343 344
119 129 102 241 192 357 19 11 232 124 102 157 141 152 139 150 151 166 165 161 172 174 168 149 151 170 179 186 303 332 329 326 326 330 332 336 344 351 5 4 350 353 351 351
136 117 110 151 51 131 254 302 187 127 107 103 92 116 134 141 150 161 164 170 175 181 169 160 161 168 176 205 269 318 318 317 325 328 335 350 5 4 10 9 4 1 349 346
161 129 122 118 157 233 331 334 92 126 193 138 124 125 123 132 127 135 169 172 159 150 155 161 171 178 172 214 303 321 320 332 335 347 8 16 20 21 13 13 14 7 356 354
83 109 127 102 114 163 196 340 219 132 96 174 142 146 138 131 136 186 159 158 152 157 160 165 177 183 209 281 312 317 346 355 7 39 40 30 26 26 20 28 21 26 28 29
127 53 143 107 131 269 220 138 152 169 215 165 156 157 160 145 160 159 158 151 153 152 154 164 173 188 210 334 327 351 3 16 28 38 23 28 19 18 17 10 26 34 25 24
153 137 149 93 88 238 187 158 170 200 142 161 163 159 156 152 147 150 150 145 147 147 149 163 161 137 66 352 342 21 18 43 63 54 31 17 8 11 9 16 19 46 44 38
29 183 161 154 202 247 163 152 155 151 159 165 163 169 163 148 146 147 142 145 146 151 156 160 179 115 24 16 9 9 28 72 68 49 31 34 44 42 45 38 30 49 38 35
305 22 94 86 328 66 122 112 153 173 166 169 169 160 161 153 151 145 147 149 151 153 155 157 163 118 66 48 352 350 23 89 68 58 37 38 37 30 32 29 22 22 22 20
260 340 26 88 69 97 88 126 139 137 144 145 152 160 163 156 153 155 152 155 157 159 154 166 166 102 99 53 18 21 62 103 93 39 20 14 23 19 16 26 14 8 4 8
337 240 135 166 174 124 123 130 140 141 144 151 155 156 160 162 156 158 153 156 158 153 147 143 115 102 91 44 8 46 84 101 63 29 31 39 20 17 16 11 13 16 4 13